Regional Weather Roundup
Issued by NWS Sioux Falls, SD

Home | Current Version | Previous Version | Text Only | Print | Product List | Glossary Off
Versions: 1 2 3 4 5 6 7 8 9 10 11 12 13 14 15 16 17 18 19 20 21 22 23 24 25 26 27 28 29 30 31 32 33 34 35 36 37 38 39 40 41 42 43 44 45 46 47 48 49 50

581
ASUS43 KFSD 131410
RWRFSD

WEATHER ROUNDUP FOR SE SOUTH DAKOTA/SW MINNESOTA/NW IOWA
NATIONAL WEATHER SERVICE SIOUX FALLS SD
800 AM CST FRI DEC 13 2019

NOTE: "FAIR" INDICATES FEW OR NO CLOUDS BELOW 12,000 FEET WITH NO
SIGNIFICANT WEATHER AND OR OBSTRUCTIONS TO VISIBILITY.


SDZ038>040-050-052>070-131500-
SOUTHEAST SOUTH DAKOTA

CITY           SKY/WX    TMP DP  RH WIND       PRES   REMARKS
BROOKINGS      CLOUDY    18  17  96 S7        29.83R FOG     WCI   9
CHAMBERLAIN    FOG      N/A N/A N/A CALM      29.82S VSB 1/4
HURON          FOG       23  23 100 S8        29.83F VSB 1/2 WCI  14
MADISON        CLOUDY    18  18 100 S9        29.82R FOG     WCI   6
MITCHELL       FOG       25  24  96 S6        29.84F VSB 1/2 WCI  18
SIOUX FALLS    CLOUDY    20  17  88 S8        29.85R WCI  10
WINNER         FAIR      20  16  84 CALM      29.81S
YANKTON        CLOUDY    22  21  96 SE3       29.86R FOG
$$

MNZ071-072-080-081-089-090-097-098-131500-
SOUTHWEST MINNESOTA

CITY           SKY/WX    TMP DP  RH WIND       PRES   REMARKS
FAIRMONT       CLOUDY    10   7  87 S9        29.91S WCI  -3
LUVERNE        CLOUDY    18  14  86 S6        29.87R FOG     WCI   9
MARSHALL       CLOUDY    13  11  92 SE8       29.86F FOG     WCI   2
MONTEVIDEO     CLOUDY    10   5  79 CALM      29.89R
PIPESTONE        N/A     18  16  93 MISG      29.82S FOG
REDWOOD FALLS  CLOUDY     8   4  83 SE6       29.90F WCI  -2
TRACY          CLOUDY    14  14 100 SW6       29.86F FOG     WCI   5
WINDOM         PTCLDY    10   9  92 S5        29.87R WCI   2
WORTHINGTON    LGT SNOW  12  10  92 SE12      29.82F FOG     WCI  -2
$$

IAZ001>003-012>014-020>022-031-032-NEZ013-014-SDZ071-131500-
NORTHWEST IOWA

CITY           SKY/WX    TMP DP  RH WIND       PRES   REMARKS
CHEROKEE       CLOUDY    16  15  94 SE6       29.90F WCI   8
DENISON        MOCLDY    19  19 100 SE7       29.90F FOG     WCI  10
ESTHERVILLE    MOCLDY    10   8  92 S9        29.89S FOG     WCI  -3
LE MARS        CLOUDY    19  19 100 SE10      29.85F WCI   8
MAURICE        CLOUDY    18  18 100 SE17      29.82F FOG     WCI   2
SHELDON        CLOUDY    16  16 100 SE12G18   29.83F FOG     WCI   3
SIOUX CITY     CLOUDY    20  19  96 SE8       29.88F FOG     WCI  10
SPENCER        CLOUDY    13   8  81 S7        29.90S WCI   3
STORM LAKE     PTCLDY    14  14 100 SE5       29.86R FOG     WCI   6
$$

ABBREVIATIONS USED IN REMARKS
   TC - TEMPERATURE IN CELSIUS
  WCI - WIND CHILL INDEX
   HX - HEAT INDEX
  VSB - VISIBILITY





USA.gov is the U.S. government's official web portal to all federal, state and local government web resources and services.